Date,TemperatureHighF,TemperatureAvgF,TemperatureLowF,DewpointHighF,DewpointAvgF,DewpointLowF,HumidityHigh,HumidityAvg,HumidityLow,PressureMaxIn,PressureMinIn,WindSpeedMaxMPH,WindSpeedAvgMPH,GustSpeedMaxMPH,PrecipitationSumIn
2013-1-1,35.0,27.6,14.6,28.0,19.1,9.0,83,70,59,30.01,29.79,12,2,17,0.00
2013-1-2,27.0,18.8,8.2,20.0,11.6,-1.0,87,74,56,30.23,30.00,6,1,14,0.00
2013-1-3,18.8,8.1,-4.7,9.0,1.1,-8.0,86,74,57,30.27,30.05,6,1,8,0.00
2013-1-4,40.6,30.3,13.7,23.0,20.0,9.0,89,66,46,30.04,29.89,9,1,13,0.08
2013-1-5,36.6,31.2,20.3,27.0,22.9,17.0,88,72,56,30.28,29.96,5,1,11,0.04
2013-1-6,43.1,29.6,18.6,29.0,24.2,17.0,93,81,57,30.22,29.94,6,0,11,0.12
2013-1-7,36.9,30.4,15.6,31.0,23.1,13.0,92,75,54,30.40,30.04,7,1,13,0.02
2013-1-8,43.9,23.2,9.1,29.0,18.5,7.0,93,83,56,30.42,30.30,3,0,5,0.04
2013-1-9,46.4,29.0,14.1,34.0,23.4,12.0,94,81,54,30.42,30.04,7,1,17,0.00
2013-1-10,42.8,37.0,28.1,30.0,25.7,24.0,84,64,51,30.57,30.19,12,2,19,0.00
2013-1-11,37.3,30.8,22.6,36.0,27.8,21.0,97,88,72,30.57,30.11,5,1,17,0.04
2013-1-12,44.1,37.5,33.5,42.0,36.8,33.0,99,97,92,30.18,30.11,2,0,7,0.00
2013-1-13,43.3,39.1,32.6,43.0,38.9,32.0,99,99,98,30.15,29.96,2,0,6,0.01
2013-1-14,46.0,39.8,33.2,39.0,32.3,25.0,99,75,66,30.33,29.98,8,2,13,0.05
2013-1-15,37.1,32.9,29.7,26.0,23.9,23.0,77,70,59,30.35,30.27,3,1,8,0.00
2013-1-16,31.6,30.3,29.6,30.0,28.4,23.0,98,93,73,30.24,29.85,1,0,3,0.00
2013-1-17,31.8,26.9,22.9,29.0,20.2,13.0,98,77,64,30.18,29.89,3,1,11,0.10
2013-1-18,24.7,18.0,11.3,11.0,9.1,8.0,85,69,52,30.44,30.12,5,0,6,0.00
2013-1-19,44.6,35.1,18.4,27.0,22.5,13.0,81,61,49,30.27,29.88,6,2,11,0.12
2013-1-20,45.4,38.7,24.7,34.0,22.8,13.0,76,55,32,30.02,29.66,8,3,19,0.00
2013-1-21,26.3,22.7,16.8,18.0,14.3,9.0,90,71,56,30.08,29.83,7,1,11,0.00
2013-1-22,20.4,14.9,8.4,14.0,0.8,-6.0,84,55,38,30.16,29.82,9,2,15,0.00
2013-1-23,15.4,7.7,0.8,0.0,-3.5,-6.0,85,62,43,30.24,30.14,9,1,13,0.00
2013-1-24,18.6,8.6,-2.2,4.0,-2.1,-6.0,84,64,36,30.40,30.19,9,2,19,0.00
2013-1-25,21.5,14.4,9.1,11.0,3.8,-3.0,88,64,37,30.43,30.11,7,1,13,0.00
2013-1-26,23.9,14.6,7.2,10.0,5.8,4.0,87,70,46,30.38,30.09,8,2,14,0.00
2013-1-27,32.1,21.4,13.2,11.0,5.8,0.0,82,55,27,30.54,30.37,5,1,15,0.00
2013-1-28,26.7,21.9,15.3,26.0,16.2,4.0,95,80,55,30.51,29.98,3,0,6,0.00
2013-1-29,37.4,33.2,26.9,37.0,32.2,26.0,98,96,92,30.18,30.01,6,0,10,0.09
2013-1-30,53.1,45.4,35.4,53.0,45.0,35.0,100,98,93,30.04,29.32,10,2,18,0.09
2013-1-31,51.5,39.0,26.8,52.0,30.3,12.0,100,73,43,29.67,28.93,10,3,25,0.38
2013-2-1,29.6,23.6,19.4,19.0,10.9,6.0,87,59,45,30.19,29.68,9,2,17,0.00
2013-2-2,29.2,21.2,12.2,15.0,10.7,8.0,87,66,45,30.26,30.04,7,1,15,0.00
2013-2-3,29.5,21.8,15.8,17.0,15.5,13.0,93,78,52,30.07,29.80,2,0,7,0.00
2013-2-4,27.7,21.5,17.3,19.0,11.7,5.0,90,67,40,29.98,29.80,10,2,17,0.00
2013-2-5,30.1,22.9,17.1,21.0,14.8,12.0,87,72,53,30.04,29.91,4,0,5,0.00
2013-2-6,36.0,26.8,17.9,24.0,15.4,2.0,92,65,36,30.40,29.92,8,1,14,0.00
2013-2-7,31.9,21.7,12.7,11.0,6.8,4.0,78,54,36,30.55,30.39,5,1,8,0.00
2013-2-8,29.6,26.7,23.5,28.0,21.5,11.0,95,82,55,30.38,29.84,4,0,9,0.00
2013-2-9,25.6,21.1,14.9,23.0,14.1,6.0,95,76,53,30.39,29.88,11,2,16,0.00
2013-2-10,34.6,17.4,2.3,12.0,5.9,-3.0,82,62,37,30.53,30.31,4,1,8,0.09
2013-2-11,43.1,32.3,15.2,38.0,28.5,10.0,97,86,67,30.30,29.69,10,1,21,0.28
2013-2-12,38.9,36.4,33.2,31.0,27.6,24.0,80,70,65,29.96,29.70,7,2,16,0.04
2013-2-13,43.6,34.5,30.2,25.0,23.9,22.0,80,66,46,29.93,29.74,6,1,11,0.00
2013-2-14,44.3,32.1,23.5,27.0,23.8,20.0,88,73,49,29.97,29.74,5,0,8,0.00
2013-2-15,51.5,37.7,27.9,32.0,27.2,24.0,91,68,43,30.02,29.91,7,1,10,0.00
2013-2-16,31.9,28.4,24.8,30.0,20.0,12.0,94,72,57,30.02,29.86,7,1,10,0.01
2013-2-17,25.9,20.0,14.2,13.0,5.9,3.0,68,55,40,29.95,29.70,13,3,25,0.00
2013-2-18,32.8,20.8,11.7,11.0,5.8,2.0,67,54,35,30.23,29.96,8,2,22,0.00
2013-2-19,38.5,28.1,14.9,34.0,22.3,10.0,97,79,56,30.18,29.65,12,1,17,0.02
2013-2-20,32.1,26.6,22.8,30.0,15.8,10.0,92,64,46,29.93,29.68,10,3,19,0.01
2013-2-21,28.2,22.5,19.3,16.0,13.1,11.0,78,67,55,30.41,29.91,10,3,18,0.00
2013-2-22,36.5,29.7,21.6,25.0,20.8,16.0,80,70,57,30.46,30.24,6,1,16,0.00
2013-2-23,37.1,34.3,31.6,35.0,32.1,25.0,97,91,76,30.24,29.89,12,3,16,0.00
2013-2-24,42.2,34.3,30.5,35.0,30.0,24.0,98,85,65,30.01,29.79,5,1,12,0.04
2013-2-25,41.5,34.8,28.8,30.0,27.2,24.0,86,74,58,30.27,30.01,5,1,11,0.00
2013-2-26,44.7,34.9,24.4,32.0,26.8,22.0,93,74,52,30.33,30.07,8,1,15,0.00
2013-2-27,37.5,33.9,30.3,37.0,33.1,28.0,99,97,82,30.05,29.57,1,0,6,1.07
2013-2-28,40.2,35.7,33.2,39.0,35.1,32.0,99,97,89,29.63,29.58,2,0,7,0.53
2013-3-1,39.8,35.0,31.3,33.0,30.1,26.0,95,82,69,29.80,29.63,5,1,11,0.04
2013-3-2,35.2,30.5,25.8,26.0,23.9,20.0,84,77,66,29.80,29.74,6,2,13,0.00
2013-3-3,32.0,26.5,21.7,24.0,18.8,15.0,78,73,66,29.80,29.72,7,2,13,0.00
2013-3-4,34.6,28.6,24.8,23.0,21.2,19.0,82,74,62,29.93,29.78,12,3,17,0.00
2013-3-5,42.1,33.1,28.7,28.0,25.2,23.0,87,73,56,30.10,29.94,6,1,10,0.00
2013-3-6,40.3,33.8,26.7,33.0,27.9,25.0,92,79,67,30.13,30.04,8,1,13,0.00
2013-3-7,36.8,33.3,30.2,31.0,27.6,24.0,96,80,61,30.18,30.11,7,1,10,0.00
2013-3-8,39.4,32.0,28.3,36.0,29.8,26.0,97,92,79,30.32,30.11,5,0,12,0.23
2013-3-9,52.3,37.4,27.7,26.0,23.6,20.0,84,61,29,30.36,30.29,6,1,10,0.26
2013-3-10,53.7,38.4,22.4,34.0,27.7,21.0,93,68,43,30.38,30.19,8,2,13,0.00
2013-3-11,49.2,42.1,34.0,44.0,36.3,31.0,91,80,66,30.25,30.02,18,2,22,0.00
2013-3-12,52.1,46.3,36.5,52.0,44.9,34.0,98,95,88,30.03,29.67,14,3,17,0.62
2013-3-13,45.2,36.0,28.5,34.0,28.4,23.0,95,76,43,29.88,29.79,7,1,17,0.01
2013-3-14,30.7,26.9,22.6,27.0,15.4,11.0,89,62,51,29.93,29.85,10,3,17,0.00
2013-3-15,37.8,30.5,21.8,30.0,19.8,11.0,93,65,48,29.96,29.70,6,2,15,0.00
2013-3-16,37.1,29.7,21.6,26.0,17.8,13.0,81,63,40,29.95,29.79,4,1,9,0.00
2013-3-17,36.0,27.4,20.0,19.0,12.4,8.0,76,56,33,30.36,29.95,8,2,20,0.00
2013-3-18,35.6,25.3,12.5,25.0,13.2,5.0,93,64,30,30.47,30.11,7,1,12,0.00
2013-3-19,37.2,31.2,26.5,34.0,29.6,25.0,96,94,88,30.10,29.73,5,1,8,0.28
2013-3-20,36.4,29.1,22.6,25.0,21.5,18.0,91,75,50,29.86,29.80,8,1,13,0.11
2013-3-21,37.9,27.1,16.2,22.0,15.2,11.0,89,64,34,29.85,29.67,7,1,11,0.08
2013-3-22,35.6,28.5,18.9,26.0,20.4,13.0,85,72,59,29.85,29.72,7,1,15,0.02
2013-3-23,40.7,34.1,30.3,27.0,23.3,20.0,84,66,48,29.92,29.81,8,2,19,0.04
2013-3-24,41.8,34.1,27.7,25.0,23.3,22.0,81,66,49,29.94,29.78,6,1,11,0.00
2013-3-25,43.3,34.5,26.8,28.0,25.7,24.0,90,72,51,29.79,29.54,7,1,13,0.00
2013-3-26,45.1,37.4,31.5,34.0,27.6,22.0,87,68,50,29.88,29.64,7,1,14,0.00
2013-3-27,51.0,39.4,30.5,30.0,25.9,21.0,78,61,33,29.98,29.86,7,1,12,0.00
2013-3-28,46.1,40.1,33.0,35.0,31.8,28.0,84,72,63,30.13,29.96,5,1,11,0.00
2013-3-29,49.6,41.3,34.9,32.0,30.3,28.0,77,66,48,30.15,30.09,6,1,12,0.00
2013-3-30,55.7,43.0,31.8,32.0,26.4,20.0,86,56,26,30.16,30.08,8,1,13,0.00
2013-3-31,54.0,39.4,24.7,40.0,29.6,21.0,96,71,40,30.15,29.73,11,2,24,0.10
2013-4-1,52.2,39.8,29.8,46.0,32.9,16.0,99,79,44,29.90,29.59,13,2,22,0.01
2013-4-2,37.1,31.2,26.6,20.0,16.2,13.0,69,55,39,30.05,29.89,9,3,18,0.00
2013-4-3,41.0,32.8,27.5,21.0,17.5,15.0,72,55,38,30.30,30.03,9,2,18,0.00
2013-4-4,56.3,40.9,27.1,25.0,20.9,17.0,74,48,28,30.38,29.99,10,1,13,0.00
2013-4-5,56.7,41.9,28.1,28.0,24.2,20.0,81,53,28,30.01,29.77,6,2,15,0.00
2013-4-6,48.8,36.1,27.7,25.0,13.0,6.0,71,42,19,30.31,30.01,10,2,15,0.00
2013-4-7,60.9,46.7,27.5,40.0,29.3,17.0,79,54,30,30.27,29.92,12,4,23,0.00
2013-4-8,65.1,50.9,35.4,40.0,37.5,33.0,93,63,38,30.12,29.96,8,1,12,0.00
2013-4-9,67.9,57.8,49.5,50.0,44.7,40.0,89,63,42,30.03,29.85,9,2,16,0.01
2013-4-10,59.2,51.4,46.6,52.0,48.7,46.0,98,91,75,30.02,29.83,6,0,7,0.42
2013-4-11,46.7,40.8,31.8,46.0,33.7,23.0,98,78,46,30.16,29.89,11,1,12,0.16
2013-4-12,38.8,35.4,31.5,38.0,34.5,30.0,98,96,94,30.14,29.79,6,1,10,0.43
2013-4-13,50.6,42.5,35.9,43.0,38.8,35.0,99,87,66,29.95,29.83,4,0,8,0.01
2013-4-14,46.9,40.4,30.7,38.0,32.1,27.0,95,74,51,30.26,29.95,5,1,12,0.00
2013-4-15,62.1,45.0,28.2,38.0,32.2,26.0,94,65,38,30.38,30.23,8,2,18,0.00
2013-4-16,60.0,52.0,41.9,55.0,44.4,32.0,96,76,59,30.32,30.05,16,3,18,0.10
2013-4-17,63.5,51.7,41.0,52.0,38.0,33.0,95,63,35,30.33,30.15,9,2,12,0.03
2013-4-18,64.9,48.8,32.0,51.0,38.5,31.0,96,71,39,30.35,30.04,19,4,27,0.00
2013-4-19,70.7,60.5,45.6,64.0,57.2,44.0,95,89,77,30.03,29.54,11,4,21,0.52
2013-4-20,54.0,44.8,35.9,44.0,34.1,23.0,97,69,40,30.34,29.71,9,2,14,0.19
2013-4-21,51.4,39.0,30.8,26.0,22.0,18.0,76,53,31,30.67,30.35,8,2,15,0.00
2013-4-22,59.3,43.5,27.0,32.0,26.6,22.0,89,57,28,30.73,30.51,10,2,17,0.00
2013-4-23,51.2,40.9,29.2,40.0,33.7,26.0,94,76,64,30.54,30.17,3,0,8,0.00
2013-4-24,74.4,52.7,30.6,52.0,42.6,30.0,98,72,44,30.16,29.74,8,2,18,0.00
2013-4-25,60.0,48.9,36.2,53.0,32.7,24.0,90,57,26,30.29,29.76,8,2,14,0.09
2013-4-26,59.3,45.4,30.8,38.0,32.1,28.0,91,63,38,30.47,30.28,6,1,15,0.00
2013-4-27,66.4,50.1,32.9,36.0,31.0,23.0,87,53,23,30.48,30.30,8,1,9,0.00
2013-4-28,74.7,56.0,35.5,42.0,37.1,33.0,92,54,27,30.32,30.12,7,1,14,0.00
2013-4-29,57.3,53.1,50.1,49.0,42.8,33.0,88,69,44,30.23,30.17,10,2,19,0.03
2013-4-30,73.5,59.2,49.3,49.0,42.8,33.0,84,58,32,30.31,30.21,7,1,12,0.01
2013-5-1,76.6,58.2,37.8,43.0,36.7,29.0,90,51,18,30.45,30.31,6,1,15,0.00
2013-5-2,81.8,61.6,38.4,47.0,41.3,37.0,95,54,22,30.46,30.28,11,1,12,0.00
2013-5-3,72.6,59.8,46.6,42.0,36.5,30.0,75,44,23,30.47,30.31,8,1,12,0.00
2013-5-4,77.3,58.9,39.8,48.0,42.1,37.0,93,59,28,30.36,30.18,7,1,9,0.00
2013-5-5,75.8,58.0,38.9,45.0,38.7,31.0,97,56,20,30.30,30.15,7,1,13,0.00
2013-5-6,74.3,56.0,35.2,48.0,42.0,34.0,97,65,28,30.27,30.09,10,1,13,0.00
2013-5-7,80.3,63.1,43.2,56.0,49.3,42.0,98,66,26,30.17,30.04,6,1,11,0.00
2013-5-8,65.6,61.2,53.3,64.0,58.5,51.0,98,91,76,30.13,29.97,3,0,12,0.20
2013-5-9,68.4,58.9,51.9,58.0,55.2,51.0,98,88,62,30.00,29.88,10,0,10,0.00
2013-5-10,77.4,63.9,48.9,60.0,55.0,48.0,99,75,48,29.99,29.83,7,1,9,0.01
2013-5-11,66.4,62.4,55.1,65.0,59.7,53.0,97,91,74,29.84,29.67,6,1,11,0.17
2013-5-12,61.9,52.8,42.0,53.0,42.2,30.0,94,70,33,29.88,29.67,4,1,14,0.00
2013-5-13,51.4,44.5,38.0,32.0,30.1,28.0,78,58,42,30.11,29.88,6,1,13,0.00
2013-5-14,58.0,46.5,34.6,33.0,30.4,25.0,85,58,30,30.14,30.03,7,1,11,0.00
2013-5-15,66.5,47.2,30.3,53.0,41.0,29.0,95,80,57,30.08,29.63,19,2,21,0.03
2013-5-16,80.9,63.6,41.4,51.0,42.9,37.0,98,55,23,29.86,29.70,12,1,17,0.00
2013-5-17,70.7,58.5,47.8,45.0,41.3,39.0,78,55,35,30.23,29.87,7,1,12,0.00
2013-5-18,70.4,56.9,40.7,50.0,45.4,39.0,95,69,39,30.32,30.22,8,0,11,0.00
2013-5-19,58.2,53.2,44.7,56.0,51.7,44.0,98,95,89,30.30,30.15,9,1,20,0.01
2013-5-20,84.4,66.8,55.1,67.0,61.0,54.0,99,83,55,30.16,29.93,6,1,10,0.00
2013-5-21,88.8,71.4,56.5,73.0,65.2,56.0,99,82,53,29.95,29.77,4,0,11,0.00
2013-5-22,77.5,69.8,63.2,72.0,67.4,63.0,99,92,77,29.87,29.78,4,0,12,0.54
2013-5-23,74.8,67.5,60.2,69.0,64.8,59.0,98,91,73,29.83,29.71,5,0,14,0.14
2013-5-24,64.3,51.1,41.1,64.0,50.1,40.0,99,96,86,30.02,29.66,5,1,11,0.42
2013-5-25,45.6,43.3,40.8,45.0,42.2,40.0,98,96,91,30.00,29.94,7,2,15,0.47
2013-5-26,57.5,50.1,42.8,46.0,41.1,38.0,91,72,49,30.15,29.90,10,2,21,0.01
2013-5-27,74.0,58.2,44.0,44.0,39.2,35.0,78,53,26,30.23,30.12,6,1,12,0.00
2013-5-28,70.1,55.2,39.6,55.0,45.6,37.0,95,72,40,30.23,30.12,7,1,10,0.01
2013-5-29,79.6,63.9,55.7,72.0,62.0,55.0,99,94,74,30.13,29.94,5,0,13,0.62
2013-5-30,89.1,72.8,57.4,74.0,66.1,57.0,100,82,50,30.11,30.04,7,1,10,0.00
2013-5-31,92.4,74.3,60.2,79.0,68.2,60.0,99,83,50,30.11,29.92,5,0,8,0.04
2013-6-1,91.0,76.4,60.4,76.0,67.6,60.0,99,76,41,29.97,29.82,4,1,10,0.01
2013-6-2,87.7,74.2,65.8,75.0,69.1,65.0,98,85,62,29.84,29.70,5,0,12,0.40
2013-6-3,72.1,64.9,52.0,65.0,58.5,47.0,99,81,56,29.94,29.80,10,1,11,0.01
2013-6-4,71.2,59.1,47.0,49.0,44.0,41.0,84,60,37,30.15,29.94,6,1,17,0.00
2013-6-5,76.6,60.2,45.8,53.0,47.0,41.0,91,64,37,30.22,30.10,5,0,8,0.00
2013-6-6,70.4,59.3,51.5,57.0,53.8,50.0,97,83,58,30.15,30.02,7,1,21,0.24
2013-6-7,58.1,56.2,55.2,58.0,55.7,55.0,99,98,97,30.02,29.79,6,0,9,0.66
2013-6-8,72.7,61.4,53.5,63.0,57.9,53.0,99,89,68,30.06,29.72,5,0,9,0.45
2013-6-9,79.2,64.4,49.7,62.0,56.4,49.0,100,78,48,30.18,30.06,4,0,11,0.01
2013-6-10,62.0,58.4,51.5,62.0,57.7,51.0,99,97,94,30.19,29.87,3,0,7,0.42
2013-6-11,70.7,63.4,58.4,69.0,61.5,57.0,100,94,83,29.87,29.58,9,1,12,0.21
2013-6-12,71.6,63.2,54.1,58.0,54.7,52.0,94,75,51,29.86,29.66,9,1,16,0.08
2013-6-13,56.3,54.3,51.3,56.0,54.0,51.0,99,98,95,29.84,29.65,7,0,11,1.97
2013-6-14,72.2,59.8,51.2,60.0,55.8,51.0,99,88,56,29.89,29.70,8,1,11,0.12
2013-6-15,78.4,65.5,52.5,57.0,51.4,45.0,94,64,36,30.00,29.89,10,1,11,0.00
2013-6-16,74.3,61.7,48.2,64.0,56.3,47.0,98,83,60,29.98,29.71,3,0,15,0.00
2013-6-17,83.9,66.8,54.7,67.0,60.6,54.0,99,84,41,29.91,29.80,6,0,23,0.12
2013-6-18,69.5,60.7,53.3,64.0,57.6,51.0,100,90,73,29.97,29.89,6,1,9,0.04
2013-6-19,73.4,60.6,48.0,53.0,48.5,45.0,97,68,40,30.19,29.96,6,1,10,0.00
2013-6-20,80.9,62.8,45.1,60.0,53.4,44.0,98,75,46,30.28,30.18,5,0,10,0.00
2013-6-21,82.8,67.2,51.3,69.0,61.5,51.0,99,84,57,30.27,30.20,3,0,10,0.00
2013-6-22,85.6,71.1,57.5,70.0,64.3,57.0,99,81,54,30.21,30.07,4,1,11,0.00
2013-6-23,91.2,77.4,65.2,77.0,69.1,63.0,94,77,44,30.13,29.97,4,0,11,0.00
2013-6-24,92.0,75.8,65.8,78.0,68.7,64.0,98,81,48,30.04,29.91,7,0,9,0.00
2013-6-25,89.8,74.0,61.0,76.0,68.4,61.0,99,84,55,29.99,29.76,6,0,8,0.00
2013-6-26,81.8,73.8,66.8,73.0,69.2,65.0,98,86,67,29.82,29.76,4,0,8,0.00
2013-6-27,85.3,73.0,61.3,74.0,68.0,61.0,100,85,65,29.82,29.56,5,0,8,0.11
2013-6-28,81.9,73.3,68.6,74.0,69.3,65.0,98,87,65,29.55,29.36,8,1,17,0.95
2013-6-29,83.6,71.3,62.7,70.0,66.3,62.0,98,85,62,29.68,29.48,9,1,12,0.00
2013-6-30,85.7,70.6,62.2,75.0,67.4,62.0,98,90,67,29.92,29.68,5,0,13,0.07
2013-7-1,76.8,70.3,65.9,74.0,69.4,66.0,100,97,88,30.01,29.91,4,0,10,0.31
2013-7-2,84.5,75.8,70.7,77.0,73.2,70.0,100,92,76,30.12,30.00,9,1,14,0.03
2013-7-3,86.5,75.7,70.1,77.0,73.0,70.0,99,92,73,30.19,30.11,3,0,7,0.02
2013-7-4,92.0,78.0,67.3,78.0,72.9,67.0,100,85,63,30.21,30.08,3,0,9,0.00
2013-7-5,93.1,80.5,69.8,79.0,73.7,69.0,99,82,47,30.16,30.03,6,1,12,0.00
2013-7-6,89.1,77.8,68.8,74.0,71.4,68.0,98,82,57,30.10,30.01,6,0,8,0.00
2013-7-7,90.7,77.7,67.8,80.0,72.8,67.0,98,86,65,30.06,29.90,4,0,10,0.00
2013-7-8,87.2,76.3,69.2,73.0,70.5,68.0,98,83,56,30.03,29.93,5,0,9,0.00
2013-7-9,87.8,74.8,65.1,76.0,70.7,65.0,99,88,62,30.07,29.96,5,0,8,0.08
2013-7-10,83.4,75.0,69.7,77.0,73.1,69.0,99,94,78,29.98,29.77,5,0,11,0.22
2013-7-11,81.1,73.8,65.2,72.0,66.4,61.0,99,80,53,29.98,29.75,5,0,14,0.01
2013-7-12,81.1,71.0,62.9,71.0,63.7,59.0,91,79,59,30.17,29.98,4,0,7,0.00
2013-7-13,77.1,68.9,62.9,72.0,66.6,62.0,98,92,84,30.30,30.17,5,0,8,0.05
2013-7-14,89.4,76.1,63.8,78.0,71.9,64.0,100,88,63,30.34,30.21,4,0,6,0.00
2013-7-15,92.0,79.3,69.9,75.0,70.8,68.0,99,78,49,30.24,30.14,7,0,8,0.00
2013-7-16,91.1,79.7,68.0,74.0,69.0,65.0,92,72,46,30.22,30.14,4,0,9,0.00
2013-7-17,95.9,81.2,68.4,77.0,71.2,66.0,94,74,44,30.21,30.02,5,0,7,0.00
2013-7-18,96.2,82.9,73.1,76.0,73.4,71.0,94,75,48,30.04,29.93,5,0,10,0.00
2013-7-19,96.5,83.2,69.2,76.0,71.9,69.0,99,72,43,29.95,29.72,8,1,11,0.00
2013-7-20,88.1,77.2,68.1,75.0,68.1,60.0,91,74,52,29.85,29.70,7,1,9,0.00
2013-7-21,85.4,73.0,61.4,70.0,64.1,59.0,93,75,48,29.98,29.86,5,0,8,0.00
2013-7-22,85.7,71.5,61.5,72.0,66.3,61.0,98,85,53,30.00,29.82,7,0,12,0.23
2013-7-23,83.4,72.5,67.5,75.0,69.9,67.0,100,93,65,29.82,29.56,4,0,8,1.38
2013-7-24,76.6,67.8,59.7,67.0,60.6,51.0,99,79,55,30.02,29.61,6,1,12,0.01
2013-7-25,72.8,61.3,49.7,59.0,53.3,48.0,95,76,55,30.11,30.02,4,0,7,0.00
2013-7-26,79.7,66.8,56.3,63.0,58.4,54.0,95,76,49,30.08,29.99,4,0,8,0.00
2013-7-27,84.0,68.7,53.0,69.0,61.5,53.0,99,80,51,30.05,29.93,8,1,15,0.00
2013-7-28,74.8,67.7,64.5,71.0,65.9,63.0,98,93,86,29.98,29.91,4,0,11,0.30
2013-7-29,81.4,69.5,60.4,67.0,64.0,57.0,99,84,56,30.11,29.95,2,0,6,0.00
2013-7-30,77.8,64.7,53.4,64.0,58.5,53.0,99,82,56,30.18,30.09,4,0,7,0.00
2013-7-31,79.9,67.3,53.8,65.0,59.9,53.0,99,79,54,30.18,30.02,4,0,7,0.00
2013-8-1,71.0,64.5,58.5,67.0,62.5,58.0,99,93,79,30.02,29.83,8,1,17,0.03
2013-8-2,83.0,69.4,59.4,66.0,61.5,56.0,99,79,43,29.89,29.81,4,0,10,0.01
2013-8-3,81.2,67.8,57.5,64.0,58.4,53.0,98,75,44,29.89,29.81,5,0,11,0.01
2013-8-4,76.5,64.5,53.9,63.0,55.5,50.0,97,75,45,29.97,29.85,5,1,13,0.01
2013-8-5,75.2,63.8,53.9,54.0,50.5,42.0,89,65,35,30.07,29.97,9,1,13,0.00
2013-8-6,79.6,64.0,47.3,60.0,54.1,46.0,98,73,44,30.13,30.06,7,0,10,0.00
2013-8-7,73.0,66.0,57.1,65.0,62.0,56.0,98,87,75,30.14,30.03,7,1,15,0.00
2013-8-8,84.3,73.7,66.8,75.0,70.0,65.0,98,88,70,30.02,29.95,6,1,14,0.00
2013-8-9,78.8,72.0,67.9,75.0,71.0,68.0,100,97,87,29.95,29.78,2,0,6,1.34
2013-8-10,79.2,68.6,56.5,67.0,59.8,50.0,99,75,50,30.08,29.86,5,1,13,0.01
2013-8-11,76.7,63.4,51.5,63.0,55.9,50.0,96,78,48,30.13,30.02,3,0,9,0.00
2013-8-12,81.4,68.2,57.2,66.0,61.0,56.0,98,80,52,30.05,29.91,5,0,9,0.00
2013-8-13,77.5,65.3,60.1,70.0,63.8,59.0,99,95,77,29.91,29.66,12,0,12,0.70
2013-8-14,71.5,60.6,52.9,58.0,53.7,50.0,96,79,60,30.03,29.78,9,1,16,0.00
2013-8-15,73.8,61.4,50.4,57.0,53.2,49.0,97,77,50,30.14,30.03,5,1,10,0.00
2013-8-16,77.9,62.9,50.8,63.0,56.4,50.0,98,82,50,30.22,30.13,5,0,11,0.00
2013-8-17,81.3,65.2,51.9,63.0,57.4,51.0,98,79,44,30.30,30.22,2,0,5,0.00
2013-8-18,73.1,63.7,54.8,67.0,60.6,54.0,98,90,69,30.28,30.11,0,0,3,0.00
2013-8-19,80.4,67.8,58.5,68.0,62.4,58.0,99,84,54,30.12,30.01,1,0,6,0.01
2013-8-20,84.8,69.9,55.9,67.0,62.0,55.0,99,79,48,30.13,30.04,4,0,7,0.00
2013-8-21,87.1,70.7,56.2,71.0,64.1,56.0,99,82,53,30.18,30.04,3,0,6,0.00
2013-8-22,86.6,72.9,58.6,74.0,67.3,58.0,98,84,60,30.05,29.83,7,1,10,0.00
2013-8-23,76.8,67.8,57.2,67.0,60.6,53.0,95,79,56,30.18,29.89,6,1,14,0.00
2013-8-24,79.3,62.8,49.4,58.0,53.9,48.0,97,76,46,30.35,30.18,2,0,7,0.00
2013-8-25,83.3,65.1,48.4,64.0,56.9,47.0,98,78,47,30.39,30.18,4,0,7,0.00
2013-8-26,75.5,66.8,61.1,70.0,65.2,60.0,99,94,81,30.19,29.90,2,0,4,0.32
2013-8-27,83.9,71.5,65.7,72.0,68.1,65.0,99,90,62,29.93,29.85,3,0,7,0.36
2013-8-28,88.1,71.9,60.7,73.0,67.2,60.0,100,86,57,29.91,29.82,5,0,8,0.00
2013-8-29,81.5,69.1,62.7,71.0,66.0,62.0,99,90,68,30.05,29.91,2,0,4,0.00
2013-8-30,86.6,71.6,63.1,73.0,67.7,63.0,99,88,64,30.00,29.81,4,0,7,0.01
2013-8-31,83.5,69.7,67.0,76.0,68.8,67.0,100,97,77,29.82,29.73,3,0,10,0.06
2013-9-1,83.8,72.3,64.7,75.0,70.1,64.0,100,93,73,29.86,29.79,3,0,4,0.01
2013-9-2,79.8,71.4,64.4,76.0,68.5,-99.9,100,93,82,29.81,29.66,4,-10,9,0.10
2013-9-3,76.4,65.4,61.2,64.0,61.0,57.0,100,87,56,29.88,29.73,3,0,9,0.00
2013-9-4,80.8,66.4,55.6,60.0,57.2,54.0,97,75,44,29.97,29.88,5,1,10,0.00
2013-9-5,70.8,62.3,50.2,60.0,50.2,41.0,96,68,36,30.20,29.90,5,1,13,0.00
2013-9-6,70.5,54.2,40.2,50.0,43.5,39.0,97,72,35,30.29,30.13,3,0,7,0.00
2013-9-7,77.4,58.3,42.9,62.0,53.1,42.0,99,85,51,30.14,29.88,4,0,6,0.00
2013-9-8,71.5,62.2,48.8,63.0,53.6,43.0,98,76,44,30.14,29.81,8,1,13,0.01
2013-9-9,73.3,56.3,39.9,56.0,48.3,39.0,97,77,49,30.25,30.09,7,1,9,0.00
2013-9-10,81.2,67.0,58.3,75.0,65.1,56.0,99,93,80,30.11,29.99,4,0,6,0.15
2013-9-11,93.4,74.9,65.4,82.0,71.7,65.0,100,91,67,30.08,29.94,12,1,18,0.15
2013-9-12,79.6,68.6,65.0,76.0,68.1,65.0,100,98,87,29.95,29.68,2,0,7,1.01
2013-9-13,70.3,62.2,51.4,65.0,58.4,47.0,100,88,69,29.89,29.64,7,1,13,0.01
2013-9-14,62.3,54.1,47.7,51.0,47.5,44.0,91,79,63,30.13,29.89,6,1,12,0.00
2013-9-15,68.1,53.8,39.2,56.0,48.9,39.0,99,85,61,30.21,30.07,4,0,9,0.00
2013-9-16,63.6,55.7,48.3,57.0,51.6,41.0,99,86,71,30.33,30.05,6,1,12,0.04
2013-9-17,65.0,49.2,38.2,47.0,41.6,37.0,96,78,44,30.49,30.33,4,0,8,0.00
2013-9-18,71.4,51.7,36.1,53.0,45.0,36.0,99,81,45,30.37,30.16,7,0,8,0.01
2013-9-19,78.6,56.1,39.7,57.0,49.2,39.0,99,81,44,30.19,30.07,3,0,7,0.00
2013-9-20,78.9,60.1,44.5,61.0,53.4,44.0,99,81,44,30.10,29.95,6,1,15,0.01
2013-9-21,73.8,62.9,51.4,64.0,58.6,50.0,99,86,60,29.98,29.62,14,2,22,0.20
2013-9-22,62.6,56.7,49.2,59.0,49.9,42.0,99,79,60,29.94,29.63,5,1,11,0.04
2013-9-23,61.7,50.2,40.6,46.0,41.8,39.0,94,74,52,30.09,29.94,8,1,14,0.00
2013-9-24,70.3,54.9,42.4,45.0,41.6,38.0,88,64,32,30.09,29.90,6,1,11,0.00
2013-9-25,72.8,56.2,45.1,54.0,47.6,42.0,96,76,44,29.99,29.89,3,0,8,0.00
2013-9-26,66.8,54.7,46.1,52.0,48.9,45.0,98,83,54,30.16,29.99,3,0,13,0.00
2013-9-27,59.9,52.1,43.5,53.0,48.9,43.0,98,89,72,30.31,30.16,2,0,6,0.01
2013-9-28,74.3,55.8,42.3,56.0,49.0,42.0,99,81,40,30.38,30.26,2,0,7,0.00
2013-9-29,74.8,56.2,42.4,59.0,49.9,42.0,99,82,50,30.26,30.08,5,0,10,0.00
2013-9-30,75.1,55.6,42.1,57.0,49.5,41.0,99,83,48,30.11,29.98,3,0,7,0.00
2013-10-1,77.3,58.6,43.1,61.0,53.2,42.0,99,84,55,30.03,29.91,3,0,7,0.00
2013-10-2,79.6,61.9,46.9,64.0,54.8,46.0,99,80,52,30.03,29.92,7,1,12,0.00
2013-10-3,77.7,60.1,44.2,56.0,49.3,42.0,97,72,28,30.14,30.03,5,0,8,0.00
2013-10-4,70.1,58.9,52.6,63.0,56.8,51.0,99,93,77,30.09,30.02,5,0,7,0.20
2013-10-5,71.0,61.0,56.6,64.0,58.4,55.0,99,91,76,30.12,30.05,3,0,8,0.00
2013-10-6,61.1,57.6,53.8,60.0,56.9,53.0,99,97,90,30.12,30.02,5,1,13,0.08
2013-10-7,69.5,61.9,53.1,69.0,60.7,47.0,99,95,79,30.03,29.66,9,2,18,0.74
2013-10-8,65.0,53.6,44.0,48.0,44.1,41.0,91,72,45,30.38,29.96,8,1,12,0.00
2013-10-9,64.5,48.5,36.2,47.0,41.6,36.0,99,80,44,30.50,30.36,3,0,5,0.00
2013-10-10,57.2,48.0,37.5,48.0,43.9,37.0,99,86,65,30.37,30.19,2,0,3,0.00
2013-10-11,70.5,55.6,44.6,51.0,45.4,39.0,96,72,37,30.19,30.09,4,0,7,0.00
2013-10-12,74.1,55.2,38.8,57.0,48.2,38.0,97,79,53,30.35,30.16,7,0,10,0.00
2013-10-13,68.4,58.0,51.2,53.0,50.7,48.0,91,78,55,30.42,30.32,6,0,13,0.00
2013-10-14,70.4,54.7,41.5,55.0,49.5,41.0,98,84,56,30.37,30.24,3,0,6,0.00
2013-10-15,72.7,61.4,54.4,60.0,54.9,46.0,94,80,58,30.27,30.11,7,1,13,0.00
2013-10-16,65.5,56.3,48.5,56.0,49.7,39.0,95,79,53,30.11,29.87,3,0,8,0.00
2013-10-17,74.3,61.3,53.0,60.0,54.3,52.0,97,80,49,29.89,29.60,6,1,10,0.02
2013-10-18,65.8,56.6,41.7,61.0,46.8,39.0,97,72,41,29.95,29.58,7,1,14,0.04
2013-10-19,64.3,49.6,35.2,48.0,41.4,34.0,98,76,47,29.97,29.71,10,1,17,0.00
2013-10-20,61.4,51.1,42.5,48.0,38.4,34.0,88,64,39,30.04,29.71,8,1,15,0.00
2013-10-21,68.3,50.6,35.3,46.0,39.7,34.0,97,70,38,30.13,29.92,9,1,17,0.00
2013-10-22,58.2,48.5,36.4,52.0,42.5,34.0,91,80,59,29.92,29.75,3,0,12,0.00
2013-10-23,53.7,40.2,31.5,41.0,35.2,30.0,96,84,48,29.84,29.64,4,0,8,0.02
2013-10-24,51.5,41.3,31.4,36.0,30.0,26.0,94,67,38,29.94,29.76,10,1,17,0.00
2013-10-25,51.5,40.5,31.3,36.0,32.7,29.0,92,75,48,30.20,29.95,10,1,13,0.00
2013-10-26,53.4,39.8,26.0,36.0,29.3,25.0,97,71,37,30.19,29.86,8,1,14,0.01
2013-10-27,51.5,44.8,31.6,35.0,32.5,29.0,92,64,45,30.11,29.82,9,1,15,0.00
2013-10-28,54.2,38.9,26.7,38.0,30.9,26.0,97,75,53,30.39,30.10,4,0,12,0.00
2013-10-29,49.2,35.6,27.7,29.0,25.9,23.0,87,70,40,30.49,30.38,3,0,8,0.00
2013-10-30,55.2,40.3,31.8,42.0,34.6,27.0,95,81,58,30.37,30.21,6,0,7,0.00
2013-10-31,58.6,44.8,29.2,58.0,43.9,28.0,98,96,94,30.25,29.69,8,1,17,0.01
2013-11-1,71.4,61.9,50.4,62.0,52.5,43.0,98,74,44,29.71,29.41,11,3,23,0.00
2013-11-2,63.8,48.5,37.6,49.0,42.3,36.0,96,80,55,29.83,29.62,3,0,11,0.00
2013-11-3,42.9,36.0,26.3,38.0,29.2,18.0,88,76,56,30.51,29.84,11,1,16,0.00
2013-11-4,41.6,30.1,22.2,22.0,18.5,15.0,84,65,36,30.71,30.53,6,0,11,0.00
2013-11-5,54.0,38.0,23.0,38.0,30.5,20.0,91,76,55,30.70,30.47,5,0,10,0.00
2013-11-6,61.4,48.7,35.1,48.0,42.2,34.0,95,79,60,30.48,29.97,11,2,19,0.00
2013-11-7,57.2,48.3,38.4,52.0,44.1,34.0,97,85,75,29.97,29.80,6,1,13,0.14
2013-11-8,45.7,38.5,35.2,36.0,31.0,27.0,93,75,52,30.18,29.90,7,1,18,0.00
2013-11-9,46.0,38.2,31.9,35.0,29.6,26.0,85,72,61,30.26,29.94,5,1,7,0.00
2013-11-10,50.9,41.1,32.4,39.0,34.2,30.0,95,77,54,30.02,29.80,7,1,20,0.02
2013-11-11,48.9,43.7,37.6,35.0,31.4,29.0,81,63,46,30.17,29.94,8,1,21,0.00
2013-11-12,44.2,31.3,25.1,37.0,22.6,16.0,89,70,58,30.30,29.95,7,1,18,0.01
2013-11-13,36.5,27.9,21.3,19.0,17.0,13.0,85,65,40,30.40,30.21,7,1,13,0.00
2013-11-14,52.0,31.7,19.7,26.0,21.5,17.0,92,69,34,30.19,30.11,5,1,8,0.00
2013-11-15,57.1,34.9,20.2,27.0,23.0,18.0,90,67,30,30.24,30.13,4,0,5,0.00
2013-11-16,59.4,43.7,31.9,40.0,33.7,26.0,90,70,43,30.33,30.21,3,0,8,0.00
2013-11-17,57.1,48.1,32.3,56.0,46.6,30.0,97,94,88,30.26,29.71,13,2,21,0.00
2013-11-18,62.6,54.9,42.3,57.0,41.1,29.0,98,63,34,29.77,29.49,16,3,23,0.19
2013-11-19,42.0,36.3,29.0,29.0,24.5,20.0,73,63,53,30.40,29.77,7,2,16,0.00
2013-11-20,39.5,27.8,20.2,20.0,16.0,11.0,81,64,32,30.66,30.41,7,1,8,0.00
2013-11-21,42.1,29.6,14.3,30.0,21.6,12.0,92,74,51,30.66,30.39,6,0,8,0.00
2013-11-22,47.3,40.1,35.1,44.0,38.0,29.0,98,92,79,30.39,29.91,7,0,13,0.02
2013-11-23,45.7,34.8,22.8,40.0,24.4,14.0,89,67,43,30.04,29.89,14,3,19,0.00
2013-11-24,25.6,20.1,15.4,17.0,9.2,2.0,90,64,41,30.35,29.95,11,3,19,0.00
2013-11-25,32.8,24.0,14.1,20.0,14.5,9.0,82,68,53,30.46,30.25,6,1,10,0.01
2013-11-26,35.0,30.6,26.3,34.0,27.0,17.0,96,87,59,30.32,29.93,7,1,14,0.01
2013-11-27,41.9,35.7,30.4,42.0,34.1,25.0,99,94,79,29.91,29.44,8,1,20,0.58
2013-11-28,30.1,24.5,16.6,24.0,16.0,12.0,89,71,51,30.48,29.68,10,2,16,0.00
2013-11-29,33.3,23.7,17.5,22.0,16.8,11.0,90,76,55,30.79,30.48,4,0,6,0.00
2013-11-30,31.2,22.1,8.9,23.0,13.4,7.0,90,71,51,30.82,30.37,8,1,15,0.00
2013-12-1,36.6,30.4,24.2,29.0,26.1,22.0,91,84,74,30.36,30.05,1,0,7,0.00
2013-12-2,40.0,33.2,26.9,33.0,30.2,26.0,95,88,77,30.05,29.92,1,0,3,0.00
2013-12-3,46.5,33.5,25.8,38.0,30.4,25.0,97,89,69,30.04,29.92,3,0,8,0.00
2013-12-4,45.5,31.2,23.3,34.0,27.2,22.0,96,86,62,30.18,30.03,3,0,8,0.00
2013-12-5,53.7,44.7,28.1,51.0,43.3,26.0,98,94,89,30.17,29.91,9,1,15,0.03
2013-12-6,48.6,39.0,31.3,48.0,36.4,30.0,99,90,76,30.20,29.90,5,1,10,0.15
2013-12-7,37.3,31.1,25.6,30.0,24.9,17.0,96,78,59,30.53,30.17,10,1,11,0.04
2013-12-8,29.3,25.4,22.8,23.0,15.7,-99.9,87,74,67,30.63,30.46,2,-34,8,0.00
2013-12-9,35.9,30.0,24.8,35.0,28.8,23.0,98,95,89,30.45,29.94,5,1,13,0.03
2013-12-10,33.4,28.0,18.8,30.0,24.9,16.0,98,88,71,30.05,29.86,3,0,7,0.00
2013-12-11,31.4,24.4,18.1,20.0,16.4,14.0,91,72,54,30.25,30.06,8,1,12,0.00
2013-12-12,23.3,16.6,8.5,15.0,8.3,5.0,89,71,50,30.37,30.09,5,1,10,0.00
2013-12-13,30.7,23.1,12.6,20.0,13.1,7.0,86,66,58,30.41,30.03,8,2,16,0.00
2013-12-14,18.8,11.7,7.8,12.0,7.1,2.0,91,81,70,30.61,30.07,9,1,10,0.00
2013-12-15,32.5,24.0,13.5,28.0,20.1,11.0,95,85,70,30.05,29.59,5,1,12,0.00
2013-12-16,28.5,19.5,2.3,20.0,9.7,-1.0,86,67,50,30.25,29.77,10,2,15,0.00
2013-12-17,16.7,6.4,-6.9,15.0,3.6,-11.0,92,88,84,30.28,30.04,1,0,2,0.00
2013-12-18,33.1,22.5,10.9,25.0,18.1,9.0,92,83,62,30.13,30.01,5,0,13,0.01
2013-12-19,38.8,28.8,21.6,26.0,23.4,19.0,91,81,60,30.13,30.00,5,0,8,0.00
2013-12-20,39.0,33.1,26.6,35.0,29.6,24.0,92,87,78,30.12,29.93,3,0,7,0.12
2013-12-21,48.4,39.9,34.1,41.0,36.3,32.0,98,87,69,29.96,29.85,5,0,7,0.16
2013-12-22,67.8,53.2,37.0,57.0,49.4,37.0,100,88,59,29.91,29.65,19,2,19,0.02
2013-12-23,49.1,41.0,33.2,46.0,39.1,28.0,98,93,77,30.19,29.91,5,1,9,0.28
2013-12-24,33.3,27.3,18.7,29.0,19.8,9.0,83,74,60,30.35,30.14,7,1,14,0.00
2013-12-25,24.3,18.1,11.6,11.0,7.1,4.0,76,63,44,30.56,30.35,9,1,13,0.00
2013-12-26,30.9,25.5,21.6,26.0,19.0,10.0,92,76,62,30.41,30.14,11,1,14,0.00
2013-12-27,35.1,28.6,20.7,25.0,21.6,18.0,90,75,62,30.32,30.25,4,0,7,0.00
2013-12-28,48.1,28.7,18.5,31.0,23.4,17.0,94,82,51,30.24,30.06,4,0,7,0.00
2013-12-29,34.5,30.9,25.3,34.0,29.6,23.0,98,94,88,30.06,29.60,2,0,7,0.81
2013-12-30,36.8,26.1,12.4,36.0,20.7,8.0,98,80,64,30.24,29.68,7,1,22,0.00
2013-12-31,23.0,17.5,11.5,20.0,12.6,8.0,92,81,65,30.26,30.05,8,1,15,0.00
2014-1-1,26.5,20.1,14.2,15.0,10.7,7.0,87,68,49,30.41,30.25,6,1,11,0.00
2014-1-2,17.6,8.7,3.3,14.0,5.6,0.0,90,87,84,30.35,29.93,5,0,7,0.00